DW4391 Weather Reports


Display with metric or nautical units.
time (UTC)temp
F
wind
direction
speed
MPH
gust
MPH
rain 1hr
in
rain 24hr
in
rain mn
in
humidity
%
barometer
mb
20180221013317 68 91 0.0 1.0 0.00 0.00 0.00 74 1024.6
20180221011814 68 85 1.0 2.0 0.00 0.00 0.00 75 1024.6
20180221010306 69 95 0.0 2.0 0.00 0.00 0.00 75 1024.6
20180221004804 69 94 1.0 2.0 0.00 0.00 0.00 76 1024.5
20180221003257 70 115 1.0 2.0 0.00 0.00 0.00 76 1024.6
20180221001754 70 117 1.0 2.0 0.00 0.00 0.00 76 1024.6
20180221000249 70 84 1.0 3.0 0.00 0.00 0.00 76 1024.6
20180220234746 70 94 2.0 3.0 0.00 0.00 0.00 76 1024.5
20180220233242 71 95 0.0 2.0 0.00 0.00 0.00 76 1024.3
20180220231737 71 92 0.0 4.0 0.00 0.00 0.00 75 1024.2
20180220230232 72 108 1.0 3.0 0.00 0.00 0.00 74 1024.1
20180220224730 72 86 2.0 3.0 0.00 0.00 0.00 74 1023.9
20180220223225 72 101 0.0 2.0 0.00 0.00 0.00 73 1023.8
20180220221720 73 169 0.0 1.0 0.00 0.00 0.00 73 1023.7
20180220220211 73 121 1.0 2.0 0.00 0.00 0.00 72 1023.7
20180220214710 74 191 0.0 4.0 0.00 0.00 0.00 72 1023.4
20180220213202 74 77 1.0 3.0 0.00 0.00 0.00 71 1023.4
20180220211659 74 198 0.0 2.0 0.00 0.00 0.00 72 1023.5
20180220210156 73 153 0.0 5.0 0.00 0.00 0.00 72 1023.6
20180220204654 73 104 0.0 3.0 0.00 0.00 0.00 74 1023.7
20180220203144 73 190 0.0 4.0 0.00 0.00 0.00 74 1023.8
20180220201641 73 146 1.0 3.0 0.00 0.00 0.00 73 1023.9
20180220200135 73 187 0.0 4.0 0.00 0.00 0.00 74 1023.9
20180220194631 71 61 1.0 2.0 0.00 0.00 0.00 76 1024.2
20180220193126 71 79 0.0 3.0 0.00 0.00 0.00 76 1024.5
20180220191625 71 87 0.0 2.0 0.00 0.00 0.00 76 1024.6
20180220190119 71 82 1.0 6.0 0.00 0.00 0.00 76 1024.7
20180220184613 71 252 2.0 5.0 0.00 0.00 0.00 76 1025.0
20180220183113 70 71 1.0 5.0 0.00 0.00 0.00 73 1025.2
20180220181604 68 87 1.0 5.0 0.00 0.00 0.00 66 1025.4
20180220180059 66 86 1.0 4.0 0.00 0.00 0.00 42 1025.8
20180220174555 65 91 1.0 4.0 0.00 0.00 0.00 19 1026.1
20180220173050 65 72 1.0 3.0 0.00 0.00 0.00 100 1026.4
20180220171550 65 120 2.0 3.0 0.00 0.00 0.00 100 1026.5
20180220170046 65 104 1.0 2.0 0.00 0.00 0.00 100 1026.8
20180220164537 65 79 0.0 2.0 0.00 0.00 0.00 100 1027.0
20180220163032 65 94 0.0 1.0 0.00 0.00 0.00 100 1027.0
20180220161529 64 158 0.0 1.0 0.00 0.00 0.00 100 1027.0
20180220160025 64 158 0.0 2.0 0.00 0.00 0.00 100 1027.0
20180220154523 64 250 0.0 2.0 0.00 0.01 0.00 100 1027.0
20180220153017 63 106 0.0 2.0 0.00 0.01 0.00 100 1027.0
20180220151515 63 162 0.0 3.0 0.00 0.01 0.00 100 1026.9
20180220150012 63 91 0.0 1.0 0.00 0.01 0.00 100 1026.8
20180220144501 63 107 0.0 3.0 0.00 0.02 0.00 100 1026.7
20180220142956 62 111 1.0 3.0 0.00 0.02 0.00 100 1026.6
20180220141455 62 122 1.0 2.0 0.00 0.02 0.00 100 1026.4
20180220135949 62 91 1.0 2.0 0.00 0.02 0.00 100 1026.3
20180220134445 62 139 0.0 1.0 0.00 0.02 0.00 100 1026.3
20180220132938 61 113 0.0 2.0 0.00 0.02 0.00 100 1026.3
20180220131435 61 96 1.0 3.0 0.00 0.02 0.00 100 1026.2
20180220125932 61 97 1.0 3.0 0.00 0.02 0.00 100 1026.1
20180220124429 61 86 0.0 3.0 0.00 0.02 0.00 100 1026.2
20180220122922 61 75 0.0 2.0 0.00 0.02 0.00 100 1026.3
20180220121416 60 89 0.0 2.0 0.00 0.02 0.00 100 1026.2
20180220115911 60 95 0.0 2.0 0.00 0.02 0.00 100 1026.0
20180220114407 60 81 1.0 3.0 0.00 0.02 0.00 100 1025.8
20180220112907 60 89 1.0 3.0 0.00 0.02 0.00 100 1025.6
20180220111359 59 86 1.0 2.0 0.00 0.02 0.00 100 1025.6
20180220105858 59 88 2.0 3.0 0.00 0.02 0.00 100 1025.8
20180220104349 58 61 0.0 2.0 0.00 0.02 0.00 100 1025.7
20180220102845 57 50 0.0 1.0 0.00 0.02 0.00 100 1025.5
20180220101342 57 61 0.0 2.0 0.00 0.02 0.00 100 1025.3
20180220095835 57 82 0.0 2.0 0.00 0.02 0.00 100 1025.2
20180220094333 58 64 1.0 3.0 0.00 0.02 0.00 100 1025.0
20180220092833 58 290 0.0 2.0 0.00 0.02 0.00 100 1024.9
20180220091335 57 59 0.0 4.0 0.00 0.02 0.00 100 1024.9
20180220085830 57 82 0.0 2.0 0.00 0.02 0.00 100 1024.9
20180220084324 57 91 0.0 1.0 0.00 0.02 0.00 100 1024.9
20180220082820 57 141 0.0 2.0 0.00 0.02 0.00 100 1024.9
20180220081317 57 77 1.0 2.0 0.00 0.02 0.00 100 1024.9
20180220075815 57 79 1.0 2.0 0.00 0.02 0.00 100 1025.0
20180220074308 57 81 0.0 1.0 0.00 0.02 0.00 100 1025.1
20180220072802 58 81 0.0 2.0 0.00 0.02 0.00 100 1025.0
20180220071301 58 86 1.0 1.0 0.00 0.02 0.00 100 1025.0
20180220065752 58 85 1.0 2.0 0.00 0.02 0.00 100 1025.0
20180220064248 58 82 1.0 2.0 0.00 0.02 0.00 100 1025.0
20180220062745 58 121 1.0 2.0 0.00 0.02 0.00 100 1025.0
20180220061242 58 82 1.0 2.0 0.00 0.02 0.00 100 1024.9
20180220055734 58 83 2.0 2.0 0.00 0.02 0.00 100 1024.8
20180220054231 59 91 1.0 3.0 0.00 0.02 0.00 100 1024.9
20180220052725 59 87 1.0 3.0 0.00 0.02 0.00 100 1024.9
20180220051221 58 77 1.0 3.0 0.00 0.02 0.00 100 1024.8
20180220045718 58 96 1.0 3.0 0.00 0.02 0.02 100 1024.8
20180220044212 59 78 1.0 2.0 0.00 0.02 0.02 100 1024.9
20180220042707 59 58 1.0 2.0 0.00 0.02 0.02 100 1024.8
20180220041204 59 77 1.0 3.0 0.00 0.02 0.02 100 1024.8
20180220035659 59 77 1.0 2.0 0.00 0.02 0.02 100 1024.9
20180220034157 59 76 1.0 2.0 0.00 0.02 0.02 100 1024.9
20180220032648 59 84 0.0 2.0 0.00 0.02 0.02 100 1024.7
20180220031144 59 68 2.0 4.0 0.00 0.02 0.02 100 1024.7
20180220025641 59 97 1.0 3.0 0.00 0.02 0.02 100 1024.7
20180220024140 59 77 2.0 3.0 0.00 0.02 0.02 100 1024.6
20180220022634 59 77 1.0 2.0 0.00 0.02 0.02 100 1024.5
20180220021127 59 81 0.0 2.0 0.00 0.02 0.02 100 1024.3
20180220015624 59 99 1.0 2.0 0.00 0.03 0.02 100 1024.2
20180220014118 59 101 1.0 2.0 0.00 0.03 0.02 100 1024.0